FENGYUN 1C DEB, 31065

Orbit data source: Space-Track

FENGYUN 1C DEB, 31065 is space debris in SSO originally from a launch on Mon, 10 May 1999 UTC launched from the Taiyaun Space Center, China (TSC). Fengyun 1C debris stems from the Chinese weather satellite Fengyun-1C, which was intentionally destroyed by a Chinese anti-satellite missile in 2007. This event dramatically increased the amount of space debris, with thousands of trackable fragments posing hazards to satellites and human spaceflight. The Fengyun 1C debris cloud has become a focal point in discussions about space sustainability and the need for international regulations to prevent the creation of new debris.

Loading next visibility...
Identifier
31065, 1999-025BFK
Orbit
SSO
Country
Flag of CNCN / PRC
Related business
Manufacturer
Unknown
Mission
Spacecraft
Bus & Motor
Unknown
Mass
Unknown
Launch date (UTC)
1999-05-10 (27 years ago)
Launch vehicle
Unknown
Launch site
Taiyaun Space Center, China (TSC)
Object type
Payload
Rocket body
Debris
Shape & HBR
Unknown shape, 0.1 m
Radar Cross Section
Small (<0.1 m²)

Expand to show TLE details & history
Last TLE update: 2 days ago

TLE from 2 days ago
0 FENGYUN 1C DEB
1 31065U 99025BFK 26167.84764841  .00001343  00000-0  54485-3 0  9994
2 31065  98.4523 186.3325 0033988 199.1710 160.8196 14.28956029672355
Epoch: 2026-06-16T20:20Z
TLE epoch observation values (Epoch: 2026-06-16T20:20:36.822Z)
Latitude
0.00001°
Longitude
-23.93473°
Altitude
821.198 km
Speed
7.431 km/s
True Right ascension
12h 25m 19s
True Declination
0° 00' 00"
Sunlit
Object was in daylight at epoch
Visualization orbit readout
Latitude
Unknown
Longitude
Unknown
Altitude
Unknown
Speed
Unknown
Apparent Right ascension
Unknown
Apparent Declination
Unknown
Sunlit
N/A
Visualization observer readout
Local Sidereal Time
07:06:43
Azimuth
Unknown
Elevation
Unknown
Doppler factor
Unknown
Orbital elements
Apogee altitude
816.728 km
Perigee altitude
767.986 km
Semi-major axis
7,170.494 km
Eccentricity
0.0034
Inclination
98.4523°
RAAN
186.3325°
Arg. of periapsis
199.171°
True anomaly
160.94705°
Mean anomaly
160.8196°
Eccentric anomaly
160.88337°
Mean motion
3.57454 °/min
Orbital period
100.71 mins
BSTAR
0.00054485
Loading maneuver chart data...
Computing Atmospheric mass density...
Loading historical data...
Loading historical data...
Loading historical data...
Loading historical data...
Loading historical data...
Loading historical data...
Loading historical data...

Documentation

Showing up to 5 results
|